GFSCGP_sfc_dewp_132.txt.gz
Dewpoint
48 43 39 40 44 42 38 36 34 35 37 36 35 35 34 34 36 35 37 36 36 36 39 44 51 55 57 59 59 60 61 61 61 61 61 60 60 60 60 60 60 59 58 59
45 39 40 41 45 43 41 38 37 38 38 37 36 35 36 36 37 37 37 37 37 37 37 39 45 51 55 57 59 59 60 61 61 60 60 60 60 60 60 60 60 60 59 59
41 41 42 42 43 43 40 39 39 39 42 41 37 35 35 34 35 36 37 38 38 39 39 39 39 45 52 55 57 59 59 60 61 61 60 60 60 60 59 60 59 59 58 59
42 42 42 42 41 40 36 39 39 37 37 35 36 31 32 32 31 31 33 35 35 35 39 40 41 41 48 53 56 58 59 59 60 61 60 60 59 58 59 59 59 59 58 58
39 42 42 40 40 40 36 41 39 39 37 36 32 34 30 33 33 33 33 33 32 33 33 32 36 40 42 51 55 57 58 59 60 61 61 60 59 60 60 59 59 59 59 59
41 42 43 41 41 41 41 41 40 40 38 33 31 30 27 29 31 33 33 33 33 33 35 37 39 40 41 45 53 56 57 57 58 60 60 60 60 59 59 60 59 58 59 59
40 40 41 41 40 43 41 37 33 32 32 25 30 31 30 32 33 32 31 31 32 35 37 37 39 41 42 43 49 53 55 55 57 58 59 60 60 59 59 59 59 58 58 58
34 33 39 41 38 38 39 35 29 23 26 24 31 28 29 35 35 35 34 33 34 35 36 38 38 41 43 44 46 50 52 53 55 56 58 59 60 59 59 59 59 59 58 58
33 31 39 41 40 38 39 36 35 29 25 27 25 28 29 32 31 32 32 34 34 35 36 37 37 38 40 42 44 47 50 52 53 55 57 58 59 59 59 59 60 59 59 58
31 29 37 38 40 40 38 39 34 34 29 25 22 25 23 26 27 30 31 32 33 33 34 34 36 38 39 40 42 44 48 51 53 55 56 57 58 58 59 59 59 59 59 59
36 31 35 38 37 34 38 38 37 35 35 30 25 22 26 27 27 27 27 30 30 31 30 30 32 35 38 38 39 42 46 50 53 54 56 57 58 58 59 59 59 59 59 59
35 33 31 31 38 39 36 36 36 32 29 31 28 25 27 27 26 28 29 30 29 27 28 31 32 32 35 35 35 38 45 50 53 55 56 57 57 58 58 58 59 59 59 59
35 31 29 27 32 35 35 35 34 33 35 30 28 23 26 26 28 28 26 28 30 30 30 30 30 29 30 31 31 36 41 48 53 54 55 56 57 57 58 58 58 58 58 58
37 30 27 20 20 25 28 31 34 34 31 29 29 27 27 27 29 32 32 34 34 34 34 32 31 30 30 31 30 31 39 45 50 54 55 55 55 56 56 57 57 57 56 56
33 31 27 27 26 31 33 34 31 30 32 27 27 28 29 31 31 32 33 35 35 35 35 36 33 34 31 30 32 32 33 40 47 50 53 52 53 54 53 53 53 52 53 53
36 33 31 30 28 29 28 28 30 34 36 36 36 35 36 34 34 34 35 36 36 35 35 35 33 32 32 31 32 33 33 36 39 42 47 49 47 45 46 45 43 43 43 44
33 33 31 26 30 30 28 28 26 26 26 31 30 32 32 30 30 28 27 28 30 31 35 37 37 37 34 33 33 32 34 36 38 41 41 42 41 42 44 43 43 43 43 42
33 32 32 27 28 21 24 24 25 26 27 26 27 27 26 27 26 30 30 30 30 31 32 34 35 35 35 35 35 33 36 37 40 41 41 40 41 40 39 40 41 40 41 41
33 32 28 25 24 22 19 21 25 27 24 28 29 28 26 28 32 31 29 30 31 32 33 34 36 37 36 36 34 34 38 39 40 39 39 39 40 39 38 38 39 38 37 36
32 31 27 25 21 17 14 22 26 29 23 23 29 29 28 26 22 19 24 30 31 31 32 35 37 38 38 36 35 36 36 37 37 37 38 39 39 38 37 38 37 36 37 35
27 28 26 26 23 23 23 20 26 20 15 23 21 23 23 22 23 26 29 29 31 33 34 35 36 36 35 35 36 35 35 35 36 37 37 37 37 37 37 37 35 35 35 34
24 24 24 24 22 18 24 23 17 18 25 28 29 31 31 31 32 33 31 32 33 34 35 37 37 36 35 37 36 35 35 35 37 36 36 36 35 35 35 34 34 34 34 33
22 24 26 25 24 25 26 25 29 29 29 28 27 28 27 27 28 28 29 31 32 33 34 36 37 37 37 36 36 35 35 36 35 35 34 34 34 34 34 34 34 34 34 33
22 22 24 24 23 25 25 26 20 19 19 21 21 21 24 25 26 27 28 30 31 32 34 35 36 36 36 36 35 36 37 35 34 34 33 33 33 32 33 35 35 35 33 32
24 26 26 23 21 21 23 17 15 15 16 16 16 18 19 20 21 23 26 29 30 31 32 34 34 34 35 36 35 36 34 33 34 34 32 32 33 32 31 32 33 33 33 32
17 17 22 23 10 10 16 12 11 12 11 11 14 14 15 17 19 21 26 28 28 29 31 32 33 33 34 33 34 32 32 33 33 32 31 31 31 30 30 29 28 27 27 28

GFSCGP_sfc_dewp_138.txt.gz
Dewpoint
50 44 41 41 42 41 43 39 40 38 40 38 38 38 37 37 37 35 37 39 39 41 41 40 45 50 53 55 56 57 58 60 60 60 60 60 59 60 59 59 59 58 57 58
45 41 42 42 41 41 42 38 37 40 39 38 37 36 37 37 37 38 37 36 35 35 38 41 40 46 52 54 55 56 57 59 60 60 60 60 60 60 59 60 60 58 58 58
39 38 42 41 42 41 40 38 38 39 41 40 39 37 37 38 38 39 39 39 38 36 34 35 41 42 47 52 54 56 57 57 59 60 61 61 61 60 60 59 60 59 58 58
42 41 41 41 41 40 37 39 39 40 38 35 39 33 32 33 34 36 37 38 38 38 38 36 35 41 43 48 52 54 56 57 58 59 60 60 60 59 59 59 60 59 60 59
39 40 43 41 40 41 39 40 39 40 38 37 36 35 33 32 31 32 33 35 37 37 37 37 36 35 40 43 47 52 55 56 57 58 60 60 60 59 59 59 59 60 60 60
39 41 40 39 41 40 39 39 40 40 38 32 34 31 28 29 30 30 31 33 35 36 36 36 37 38 37 40 49 52 53 54 56 58 59 59 59 59 59 59 59 60 60 60
39 39 40 41 37 40 41 38 32 31 30 29 30 31 29 30 30 30 32 33 34 34 35 36 37 38 40 42 43 49 54 54 55 57 58 59 59 59 59 59 59 59 59 59
34 33 40 42 38 38 39 36 32 25 26 25 29 26 26 30 31 33 35 35 34 34 34 34 34 36 38 40 43 46 46 51 54 55 57 58 59 59 59 59 59 59 59 59
34 35 40 41 41 40 40 37 37 30 25 26 28 28 28 30 29 31 32 33 33 32 32 33 33 34 36 37 40 42 47 47 49 52 54 56 58 59 59 59 59 59 59 60
36 32 40 41 43 43 40 41 34 34 24 21 21 21 21 27 28 30 31 31 31 31 31 33 33 34 36 36 39 40 41 44 47 50 52 54 56 58 59 60 59 59 58 60
38 36 34 40 39 37 38 37 37 36 31 26 22 21 24 26 28 28 30 30 29 28 30 33 34 34 35 36 38 39 39 40 43 47 50 52 54 56 57 58 59 59 59 59
39 36 32 35 40 40 39 37 36 30 30 31 29 28 29 29 29 30 29 30 30 29 31 34 36 36 36 36 36 36 37 39 41 45 49 52 53 55 56 56 58 59 59 59
39 34 30 32 36 40 37 37 39 37 35 31 25 25 27 26 28 29 29 34 35 36 37 37 34 31 32 34 35 34 34 36 41 44 49 51 53 54 55 56 57 58 58 59
39 36 32 29 29 32 33 36 37 36 32 29 31 30 30 29 25 30 35 35 34 35 35 34 32 28 31 33 35 35 34 34 36 43 47 51 52 54 55 56 56 57 58 58
38 32 34 32 29 30 29 30 32 32 32 29 27 27 28 25 29 30 33 34 33 33 29 28 28 29 31 31 34 37 37 36 35 40 46 48 50 53 54 54 55 56 56 57
33 29 29 27 29 27 26 29 31 29 28 27 28 27 28 30 32 33 35 32 25 24 25 27 28 31 32 32 33 34 36 37 36 37 41 47 48 49 49 49 51 51 51 52
32 31 27 19 27 27 25 27 27 28 30 30 28 28 31 30 31 30 27 26 25 28 28 30 32 32 33 34 35 35 36 38 37 37 38 39 42 43 44 44 44 45 46 46
31 30 26 19 22 17 24 23 27 26 26 27 28 27 26 25 25 28 31 31 31 32 33 33 33 33 33 35 35 36 38 39 38 37 37 36 36 39 40 41 42 42 42 43
36 31 27 21 15 21 22 23 23 23 22 24 24 24 24 25 27 30 31 31 31 31 32 33 34 33 33 34 35 36 37 37 37 36 36 35 35 35 38 39 41 41 40 39
35 36 29 23 15 12 21 23 25 24 21 28 27 28 28 27 21 28 27 29 29 29 31 32 32 32 31 33 34 35 35 35 36 36 36 36 35 34 35 38 40 38 37 37
27 30 26 25 21 22 26 25 24 20 22 25 24 24 24 25 25 25 26 25 26 27 28 27 26 27 30 31 32 32 33 34 35 35 36 35 34 34 35 35 38 37 36 35
23 24 23 24 18 12 25 22 18 21 23 20 19 19 18 19 21 21 20 21 22 22 23 24 25 28 28 29 30 31 32 33 34 35 35 35 35 34 34 36 36 35 35 36
20 25 23 24 22 26 22 19 17 16 16 16 15 15 14 15 15 16 16 17 18 19 20 22 25 23 24 27 27 28 30 32 32 34 34 34 35 35 34 35 36 36 35 37
24 23 24 23 20 21 16 13 11 12 12 11 10 10 11 11 12 12 12 14 15 17 19 20 19 21 21 23 24 28 28 25 29 31 32 33 34 35 35 35 36 36 35 36
21 22 23 22 12 16 14 9 8 8 7 5 7 7 7 8 8 8 10 13 14 15 15 17 17 17 20 21 21 18 20 24 28 29 31 32 33 34 34 34 35 35 36 37
9 9 17 14 4 4 8 6 5 2 2 3 3 4 5 5 6 9 10 10 10 11 12 13 15 15 16 15 13 13 18 24 24 27 28 30 32 33 33 34 34 37 37 37

GFSCGP_sfc_dewp_141.txt.gz
Dewpoint
49 45 41 42 44 42 41 38 36 38 41 40 38 38 38 39 38 37 37 39 40 41 42 42 47 53 56 57 58 58 59 60 60 60 60 60 59 60 60 60 59 58 57 56
45 40 43 43 43 42 42 40 38 39 42 42 40 39 40 40 39 38 38 38 37 39 39 39 41 49 54 56 56 57 58 60 60 60 60 60 60 60 60 60 60 59 58 57
40 37 42 42 41 40 39 39 38 37 41 43 42 38 38 39 39 38 39 39 40 38 37 36 36 41 50 53 55 56 57 58 60 60 60 60 60 60 59 59 59 59 58 58
42 40 41 41 39 40 36 40 39 39 38 34 40 31 34 34 34 34 36 38 38 38 39 38 36 37 43 51 53 55 56 57 59 60 60 60 59 59 60 59 59 59 59 58
39 40 39 39 39 41 37 40 39 40 38 38 36 32 31 34 33 33 33 36 38 39 39 39 39 38 37 45 51 54 56 57 57 59 60 60 60 60 60 60 59 59 60 59
40 44 40 40 41 41 41 40 39 41 38 32 32 32 27 29 30 31 31 33 34 35 35 36 37 39 39 41 45 50 54 56 57 58 59 59 60 60 59 59 59 59 59 59
38 38 44 42 41 42 42 39 32 30 30 27 32 32 29 30 31 31 32 34 33 33 32 32 33 35 37 39 41 45 52 53 55 57 57 59 59 60 60 59 59 59 59 59
34 32 39 42 39 38 40 38 30 24 26 25 31 30 31 33 33 34 34 34 31 31 32 33 33 34 35 36 37 40 45 47 53 55 56 58 59 59 60 60 59 59 59 59
32 33 41 41 41 38 38 36 35 28 21 24 27 28 29 31 30 32 33 31 31 31 32 32 33 34 35 35 36 38 39 42 47 49 54 56 57 58 59 59 60 59 59 59
36 33 38 40 44 43 39 38 34 35 25 21 23 24 22 27 30 31 30 30 30 30 31 32 33 34 35 36 36 38 38 38 41 44 49 51 55 57 58 60 60 59 59 59
38 36 35 36 40 36 39 37 37 35 32 23 20 20 24 24 28 29 28 28 29 29 31 34 35 35 35 36 37 37 38 37 38 40 44 49 52 55 57 58 60 60 60 59
37 35 30 34 37 39 40 38 38 32 30 30 26 24 28 28 28 29 29 31 29 31 33 35 37 34 30 32 35 36 36 37 38 39 42 45 49 52 54 56 58 59 59 59
38 35 26 31 36 39 34 35 36 38 34 29 24 23 27 29 29 31 34 34 34 36 37 35 33 30 28 31 34 34 36 36 37 38 41 44 48 51 52 54 56 57 58 59
38 34 28 23 31 36 35 35 35 34 32 33 31 30 30 30 29 31 34 34 34 34 33 29 29 28 30 32 33 34 35 37 38 37 39 43 45 48 51 53 55 56 57 57
37 33 33 32 33 32 33 34 37 34 35 32 31 31 32 31 29 32 34 35 28 26 26 29 31 33 32 33 34 35 35 36 38 37 37 40 44 46 48 50 52 53 53 56
39 25 32 27 32 31 29 29 31 35 34 33 32 30 29 30 31 31 32 32 29 32 33 33 32 32 32 32 33 34 35 38 37 37 38 38 39 41 43 46 47 47 48 52
31 27 19 14 27 27 25 28 28 27 30 31 28 29 31 30 29 30 31 31 31 31 31 31 32 31 31 32 33 33 34 36 36 36 37 36 36 36 37 38 41 43 45 47
29 27 20 19 15 11 21 25 29 27 27 28 28 28 28 29 30 29 29 29 29 30 30 30 31 29 29 29 31 32 32 33 35 35 35 35 35 35 35 35 38 41 43 44
33 28 22 23 12 17 21 21 24 27 24 25 26 26 25 28 30 26 26 26 27 27 27 29 28 27 24 28 30 29 30 31 32 33 34 34 34 34 34 34 35 37 40 41
34 33 23 15 11 9 18 21 25 24 21 22 23 22 22 26 20 27 23 22 23 22 24 23 24 23 25 27 25 27 28 29 29 31 32 33 33 34 34 34 34 35 38 39
29 29 22 12 7 17 24 25 24 15 19 20 19 17 18 20 20 20 20 18 19 21 20 20 19 21 25 21 24 25 26 25 28 30 30 28 30 33 33 34 34 34 36 37
23 22 22 20 20 16 21 22 19 19 17 15 14 13 12 13 15 15 14 15 15 16 16 17 19 20 17 21 21 21 23 24 26 22 21 24 29 32 33 33 34 35 35 35
20 24 20 22 21 16 14 13 13 16 12 10 9 9 9 9 9 8 9 10 11 12 14 17 15 15 17 17 18 21 21 21 17 17 19 24 28 30 32 33 33 33 35 35
24 24 25 22 18 13 10 8 9 7 6 5 6 5 5 5 5 5 6 9 10 11 11 12 13 13 13 15 17 16 16 14 13 14 20 23 23 27 29 31 33 33 34 35
18 20 22 13 13 11 8 5 4 4 3 2 2 2 3 3 3 4 6 7 7 8 9 9 10 11 10 11 12 12 11 11 12 12 13 17 22 25 26 29 32 33 34 35
9 13 20 18 6 8 7 4 1 0 -0 -0 1 1 1 3 3 3 4 5 5 6 7 7 7 7 7 8 8 7 8 7 7 8 10 10 12 15 19 25 29 33 35 36

GFSCGP_sfc_dewp_147.txt.gz
Dewpoint
49 43 41 42 45 43 41 37 36 36 42 39 39 39 40 41 41 41 41 41 40 40 40 41 37 46 57 58 59 59 59 59 58 57 58 59 59 60 60 60 60 60 59 58
44 40 40 43 44 42 42 41 39 39 40 41 39 39 40 40 40 40 40 40 40 40 39 40 40 42 48 54 58 59 59 59 59 58 58 58 58 59 60 60 60 60 59 58
39 38 41 41 41 41 39 38 37 39 40 41 40 36 35 35 38 38 39 40 40 40 39 40 40 40 42 50 54 57 59 58 59 59 58 58 58 58 59 60 60 60 60 59
41 40 40 40 39 40 37 40 39 39 38 34 37 28 30 31 33 35 35 37 38 40 40 40 40 40 39 43 51 56 57 58 58 59 59 58 58 58 58 59 59 60 60 59
36 39 39 39 39 41 37 40 40 38 37 37 36 34 30 33 31 32 33 33 35 36 38 38 39 40 40 39 46 54 56 58 58 59 59 59 58 59 59 59 59 59 60 60
37 40 40 38 39 41 40 38 38 39 37 31 30 32 28 27 28 31 31 33 34 34 36 36 36 37 37 37 41 47 53 55 57 58 59 59 59 59 59 59 59 59 59 59
39 38 40 42 38 41 39 37 31 30 30 28 29 30 29 27 30 30 31 31 31 32 32 32 33 34 35 35 37 38 42 45 49 55 57 59 59 59 59 59 59 59 59 59
30 30 37 40 39 38 38 35 30 23 25 26 30 28 29 34 34 34 33 31 31 32 32 33 33 34 34 36 37 37 38 37 38 39 43 51 57 59 59 60 59 59 59 59
30 31 37 38 41 39 36 36 37 30 25 25 29 31 32 33 32 33 33 31 31 32 32 33 33 33 34 35 36 37 37 37 38 38 39 40 44 50 54 58 59 60 60 60
33 26 36 38 41 42 40 40 33 34 26 24 26 26 26 27 31 31 30 30 31 32 34 34 31 32 34 35 36 36 37 37 37 38 38 39 41 44 47 51 53 56 59 60
35 31 30 38 37 34 39 35 35 36 32 26 20 22 26 27 31 30 30 31 32 33 33 31 31 32 33 34 35 36 36 34 34 36 37 39 39 40 42 44 46 49 52 56
35 32 24 30 37 38 38 36 35 31 30 32 27 24 31 29 30 30 30 37 34 31 30 31 31 31 31 32 34 34 34 33 33 34 35 37 37 37 38 38 40 43 46 51
35 33 27 28 35 38 36 37 38 36 32 30 29 31 37 38 38 38 35 33 31 31 31 30 30 29 30 29 31 32 31 30 31 33 34 34 36 35 35 36 37 38 40 42
36 31 24 18 21 30 32 33 36 35 30 29 32 32 35 37 38 39 40 37 35 33 31 29 28 29 25 25 28 30 28 27 30 31 32 33 34 34 34 35 35 36 36 38
34 28 29 30 30 31 31 31 33 33 32 28 30 32 35 35 38 39 42 39 32 29 29 27 25 26 22 21 25 29 24 24 28 29 29 31 32 32 33 32 31 33 35 35
36 30 30 26 31 32 31 33 33 33 33 33 33 32 36 37 40 39 37 33 29 26 27 23 22 22 20 20 23 25 19 22 26 27 27 29 29 31 31 26 26 28 31 33
35 32 30 27 31 30 24 29 33 32 33 33 31 32 36 38 35 31 29 26 22 21 22 19 20 18 18 20 24 16 18 23 23 25 27 25 28 27 24 22 23 25 27 31
35 30 29 15 29 21 22 25 34 33 31 27 27 25 32 29 23 22 22 21 18 17 18 16 17 16 18 20 14 17 20 19 20 24 22 24 22 19 20 20 21 23 27 30
34 30 25 19 13 19 20 22 28 31 28 23 24 25 25 22 20 18 17 16 14 14 15 14 16 15 14 12 14 15 17 17 20 17 17 18 17 16 17 17 19 23 27 28
32 32 26 12 17 12 18 21 25 26 23 21 21 19 24 24 25 18 14 12 10 11 13 13 11 11 10 10 12 13 14 14 12 14 14 13 14 14 14 16 20 23 23 22
31 30 27 13 10 15 20 21 23 18 19 18 16 15 16 22 16 13 9 7 9 10 9 10 9 8 9 9 10 10 11 10 11 11 11 10 11 12 13 14 15 17 20 22
28 25 23 17 15 14 14 19 20 19 17 15 12 12 12 11 9 7 5 6 7 6 6 7 7 6 6 7 7 7 6 8 9 9 8 8 9 10 12 12 14 16 16 16
21 24 22 22 21 13 13 14 14 16 13 11 10 8 7 6 4 3 4 4 4 4 5 6 6 5 4 5 5 5 5 7 7 6 6 7 9 10 11 10 11 11 13 14
24 25 23 20 14 11 9 7 7 9 7 6 5 4 4 3 3 3 3 4 3 4 5 6 5 5 4 4 4 4 5 6 5 5 6 7 8 7 9 10 10 10 11 12
23 25 20 17 11 8 8 7 5 3 2 2 2 2 2 3 2 1 2 3 3 3 4 5 4 3 3 2 3 4 4 5 4 5 5 6 6 7 8 9 10 12 14 15
15 19 21 20 14 13 10 6 4 1 1 1 1 2 2 2 1 2 2 2 2 2 3 2 3 2 2 1 2 1 2 4 3 3 3 4 6 7 8 8 9 14 16 18